User: anonymous   Login
Location: Unspecified
(0.0000°N, 0.0000°E)
Time: 21:51:13
(UTC+00:00)
Language:

FFLY-2 - Orbit

View from above orbital plane
View from above orbital plane
View from above satellite
View from above satellite

Ground track
Ground track

The orbit is defined by the following mean orbital elements,

1 65321U          26145.64860147 +.00000000 +00000-0 +18899-3 0 00002
2 65321  97.7369 220.4662 0001557 291.3473  68.7579 14.91410944    08
Epoch (UTC): 25 May 2026 15:33:59
Eccentricity: 0.0001557
inclination: 97.7369°
perigee height: 592 km
apogee height: 595 km
right ascension of ascending node: 220.4662°
argument of perigee: 291.3473°
revolutions per day: 14.91410944
mean anomaly at epoch: 68.7579°

The dashed part of the orbit path shows where the satellite is in the earth's shadow,  

DLR